Las Cruces International Airport Las Cruces US
ICAO: KLRU
IATA: LRU
Category: Medium
Scheduled Services: No

Elevation: 4456 ft
TransAlt. 18000 ft.

Airport Communications:
AWOS 3:119.025
ALBUQUERQUE CNTR:128.2
CTAF/UNICOM:122.7

KLRU Zoom In..

If you have problems with the map follow the link
https://www.worldairports.se/pages/airport.php?
ICAO=KLRU

Runways:

(A) RW 04 length 7501 ft width 105 ft
---- / hdg 44

(B) RW 08 length 6069 ft width 100 ft
---- / hdg 79

(C) RW 12 length 7506 ft width 100 ft
---- / hdg 124

(D) RW 22 length 7501 ft width 105 ft
---- / hdg 224

(E) RW 26 length 6069 ft width 100 ft
---- / hdg 259

(F) RW 30 length 7506 ft width 100 ft
ILS 109.30 / hdg 304

Location; KLRU
Day. 16 / Time. 12.35 Zulu
* Altimeter: 30.18
* Temperature: -02° c. -28.4°f.
* Wind from: 000° Speed 00 kn.
Dewpoint: -10° c.
Visibility: 10 Statute Miles.
Clouds: Clear (automated report).

KLRU 161235Z AUTO 00000KT 10SM CLR M02/M10 A3018 RMK AO2 T10201103


Wind - Calm.

 
 
jpsmedia.com for Web Design worldairports.se 2018   terms of use